map of DAM home
DAM - Airport
Location
City:  Damascus, Syrian Arab Republic (Syria)
ICAO:OSDI
IATA:DAM

Details
Type:Airport (Aerodrome, Airfield)
Use:Public/Civil, Military, International (customs port of entry)
Latitude:3324'38"N (33.410636)
Longitude:3630'51"E (36.514267)
Datum:WGS 1984
Elevation:2020 ft (616 m)
Variation:4.80E (WMM2015 magnetic declination)
0.08 annual change
Runways:2
Longest:11811 × 148 ft (3600 × 45 m), paved

Time
Time Zone:UTC+2 (DST+3)
Local Time:

Weather
METAR:OSDI 231200Z 06006KT CAVOK 12/M04 Q1023
TAF:OSDI 230415Z 2306/2412 VRB03KT 3000BR
BECMG 2308/2312 22012KT 8000 FEW030

Related Locations
Nearby:
Farthest:RVV: 11729 mi / 18875 km
Raivavae, Tubuai Islands, Austral Islands, PF

Find:

   beyond  
but within

Other Information
Maps:
NOTAMs:
Links:
Sources:

  
flag of Syrian Arab Republic (Syria)   

Sectional Chart

Flight Planning
at skyvector.com

Satellite Image

Google Maps Satellite view

 

Copyright © 2004-2017 Karl L. Swartz. All rights reserved.
The Great Circle Mapper name and logo are trademarks of the Great Circle Mapper.
All other trademarks mentioned herein belong to their respective owners.
Please see credits for attibutions and further copyright information.

  Follow gcmap on Facebook Follow gcmap on Twitter Follow gcmap on Google+ GCmap on LinkedIn

hCard Microformat

Geo Microformat